Regional Weather Roundup
Issued by NWS New Orleans/Baton Rouge, LA

Home | Current Version | Previous Version | Graphics & Text | Print | Product List | Glossary On
Versions: 1 2 3 4 5 6 7 8 9 10 11 12 13 14 15 16 17 18 19 20 21 22 23 24 25 26 27 28 29 30 31 32 33 34 35 36 37 38 39 40 41 42 43 44 45 46 47 48 49 50
333
ASUS44 KLIX 190905
RWRLIX
NEW ORLEANS REGIONAL WEATHER ROUNDUP
NATIONAL WEATHER SERVICE NEW ORLEANS LA
400 AM CDT SAT APR 19 2014

NOTE: "FAIR" INDICATES FEW OR NO CLOUDS BELOW 12,000 FEET WITH NO
      SIGNIFICANT WEATHER AND/OR OBSTRUCTIONS TO VISIBILITY.
      SKY/WX - SKY CONDITION AND SIGNIFICANT WEATHER.
      TMP - AIR TEMPERATURE.     DP    - DEWPOINT TEMPERATURE.
      RH  - RELATIVE HUMIDITY.   PRES  - PRESSURE.
      HI  - HEAT INDEX.          WCI   - WIND CHILL INDEX.

*  THESE STATIONS ARE NOT NWS OR FAA STATIONS AND ARE NOT UNDER
   NWS QUALITY CONTROL.

LAZ038-040-048-061>063-065>067-069-191000-
SOUTHEAST LOUISIANA

CITY           SKY/WX    TMP DP  RH WIND       PRES   REMARKS
N.O. AUDUBON     N/A     58  53  81 MISG        N/A
N.O. INTL ARPT PTCLDY    60  52  74 NE13G22   30.11S
N.O. LAKEFRONT CLEAR     59  54  83 NE20      30.10F
N.O. DOWNTOWN*   N/A     59  48  67 N6        30.11S
SLIDELL        CLEAR     54  51  90 N7        30.09F
BATON ROUGE    CLEAR     55  52  89 CALM      30.14R
BOOTHVILLE     MOCLDY    59  55  87 N9G17     30.08S
BELLE CHASSE   CLEAR     58  51  78 N8G16     30.10R
BOGALUSA*        N/A     54  50  89 NE5       30.13S
GALLIANO*      MOSUNNY   58  54  86 NW5       30.12R
NEW ROADS*       N/A     55  54  95 NE6       30.14F
GONZALES*        N/A     54  54 100 CALM      30.13S
HAMMOND*       CLEAR     54  50  87 CALM      30.13S
HOUMA*           N/A     56  52  85 N3        30.12R
PORT FOURCHON* PTSUNNY   61  55  82 N8        30.13R

$$

MSZ070-080>082-191000-
SOUTHERN MISSISSIPPI

CITY           SKY/WX    TMP DP  RH WIND       PRES   REMARKS
MCCOMB         CLEAR     55  50  83 N5        30.12F
GULFPORT       CLEAR     57  51  80 N8        30.09F
BILOXI         CLEAR     55  53  90 N10       30.08F
PASCAGOULA     PTCLDY    55  53  93 N13       30.07F

$$

COASTAL OBSERVATIONS
LAKE AND NEARSHORE STATIONS

STATION/POSITION TIME  TEMP    WIND        PRES    WAVE
                       AIR SEA DIR/SP/G            HT/PER
                 (UTC) (F)     (DEG/KT/KT) (MB)    (FT/S)
PASCAGOULA       0900   56     350/ 10/ 18 1017.4
WAVELAND YACHT   0900   57 66   30/ 13/ 15 1017.7
GRAND ISLE       0900   60 66   30/ 12/ 18 1019.4
SOUTHWEST PASS   0900   62 58   10/  8/ 11 1019.0
NEW CANAL        0900   60 64   40/ 19/ 21 1019.4
SHELL BEACH      0900   60 62   20/ 21/ 24 1018.4

OFFSHORE STATIONS

STATION/POSITION TIME  TEMP    WIND        PRES    WAVE
                       AIR SEA DIR/SP/G            HT/PER
                 (UTC) (F)     (DEG/KT/KT) (MB)    (FT/S)
64 S DAUPHIN ISL 0812   62 70   10/ 25/ 29 1017.2

$$




USA.gov is the U.S. government's official web portal to all federal, state and local government web resources and services.